Location: Asheville, NC
(35.6000°N, 82.5500°W)
Time: 04:37:07
(UTC-05:00)

Vanguard 2 Rocket - Pass Details

Date: 13 December 2017
Orbit: 556 x 3326 km, 32.9° (Epoch: 22 January)

Event Time Altitude Azimuth Distance (km) Brightness Sun altitude
Exits shadow 01:47:25 13° 135° (SE) 5,198 10.7 -68.1°
Drops below altitude 10° 01:48:24 10° 134° (SE) 5,382 10.8 -68.0°
Sets 01:52:03 0° 130° (SE) 6,099 11.2 -67.3°
